Flag for Germany Weather past 2 weeks in Neu-Isenburg, Hesse, Germany

Now
44 °F

Overcast.


Feels Like: 39 °F
Forecast: 29 / 50 °F
Wind: 10 mph from Northwest

Location: Frankfurt / M-Flughafen

Current Time: Apr 2, 2015 at 12:45:52 PM

Latest Report: Apr 2, 2015 at 12:00 PM


Visibility: 25 mi

Pressure: 29.89 "Hg

Humidity: 69%

Dew point: 35 °F

Location of Neu-IsenburgLocation

Historic Weather in Neu-Isenburg — Graph

°F

Neu-Isenburg temperature yesterday

Maximum temperature yesterday: 48 °F (at 2:00 PM)
Minimum temperature yesterday: 38 °F (at 1:00 AM)
Average temperature yesterday: 43 °F

Past Weeks' High & Low Weather Summary

 TemperatureHumidityPressure
High64 °F (Mar 18, 4:00 PM)97% (Mar 21, 6:00 AM)30.31 "Hg (Mar 21, 6:00 AM)
Low29 °F (Mar 24, 5:00 AM)32% (Mar 26, 5:00 PM)29.38 "Hg (Mar 29, 10:00 PM)
Average46 °F69%29.96 "Hg
* Reported Mar 18 11:00 AM — Apr 2 12:00 Noon, Neu-Isenburg, Weather by CustomWeather, © 2015

Note: Actual official high and low records may vary slightly from our data, if they occured in-between our weather recording intervals... More about our weather records

Advertising

Neu-Isenburg weather history for previous 24 hours

 ConditionsComfort  
Time TempWeatherWind HumidityBarometerVisibility
12:00 PM
Thu, Apr 2
44 °FOvercast.10 mph69%29.89 "Hg25 mi
10:00 AM42 °FLight rain. Overcast.9 mph92%29.83 "Hg11 mi
9:00 AM40 °FLight rain. Overcast.10 mph91%29.84 "Hg10 mi
8:00 AM40 °FRain. Overcast.8 mph92%29.86 "Hg9 mi
7:00 AM40 °FLight rain. Low clouds.8 mph90%29.89 "Hg9 mi
6:00 AM40 °FLight rain. Low clouds.9 mph85%29.92 "Hg11 mi
4:00 AM43 °FLight rain. Overcast.8 mph69%29.99 "Hg19 mi
3:00 AM42 °FOvercast.9 mph71%30.03 "Hg25 mi
2:00 AM42 °FOvercast.9 mph73%30.07 "Hg25 mi
1:00 AM42 °FPassing clouds.9 mph70%30.10 "Hg28 mi
12:00 AM42 °FPassing clouds.9 mph69%30.11 "Hg28 mi
11:00 PM
Wed, Apr 1
43 °FPassing clouds.8 mph63%30.13 "Hg28 mi
10:00 PM44 °FPassing clouds.8 mph59%30.14 "Hg28 mi
9:00 PM42 °FPassing clouds.7 mph63%30.14 "Hg25 mi
8:00 PM45 °FPassing clouds.7 mph55%30.12 "Hg16 mi
7:00 PM47 °FOvercast.9 mph51%30.11 "Hg9 mi
6:00 PM47 °FPartly sunny.9 mph61%30.09 "Hg12 mi
4:00 PM43 °FPartly sunny.12 mph74%30.09 "Hg19 mi
3:00 PM44 °FSprinkles. Partly sunny.14 mph59%30.11 "Hg3 mi
2:00 PM48 °FPartly sunny.9 mph46%30.08 "Hg19 mi
1:00 PM46 °FPartly sunny.10 mph51%30.09 "Hg19 mi
12:00 PM46 °FPartly sunny.12 mph52%30.08 "Hg25 mi
Weather by CustomWeather, © 2015

See weather overviewHow to use our weather pages